Location: Shenandoah County Park
(38.9356°N, 78.4524°W)
Time: 12:47:49
(UTC-04:00)

Envisat - Pass Details

Date: 05 June 2024
Orbit: 762 x 764 km, 98.3° (Epoch: 14 June)

Event Time Altitude Azimuth Distance (km) Brightness Sun altitude
Rises 04:23:23 0° 14° (NNE) 3,233 7.3 -14.0°
Reaches altitude 10° 04:25:42 10° 16° (NNE) 2,303 6.5 -13.6°
Maximum altitude 04:30:47 75° 102° (ESE) 790 3.1 -12.9°
Drops below altitude 10° 04:35:49 10° 188° (S) 2,287 5.0 -12.2°
Enters shadow 04:35:59 - 188° (S) 2,351 5.1 -12.2°
